Orbital Elements at Epoch 2459200.5 (2020-Dec-17.0) TDB
Reference: JPL 18 (heliocentric ecliptic J2000)
Element | Value | Uncertainty (1-sigma) | Units |
e | .14241708184267 | 3.4361e-08 | |
a | 2.294985810570186 | 7.9119e-09 | au |
q | 1.968140628558445 | 7.8981e-08 | au |
i | 6.407582243447954 | 6.7597e-06 | deg |
node | 178.1793781563067 | 3.8628e-05 | deg |
peri | 129.8673161462297 | 4.6806e-05 | deg |
M | 189.1105595279653 | 2.7786e-05 | deg |
tp | 2459803.310989382260 (2022-Aug-11.81098938) | 9.9021e-05 | TDB |
period | 1269.896815029519 3.48 | 6.5669e-06 1.798e-08 | d yr |
n | .2834875997319764 | 1.466e-09 | deg/d |
Q | 2.621830992581926 | 9.0387e-09 | au |
|
| | Orbit Determination Parameters
Additional Information
|